Regional Weather Roundup
Issued by NWS

Home | Current Version | Previous Version | Graphics & Text | Print | Product List | Glossary On
Versions: 1 2 3 4 5 6 7 8 9 10 11 12 13 14 15 16 17 18 19 20 21 22 23 24 25 26 27 28 29 30 31 32 33 34 35 36 37 38 39 40 41 42 43 44 45 46 47 48 49 50
000
ASUS45 KPSR 222000
RWRAZ

PRELIMINARY ARIZONA REGIONAL HOURLY WEATHER ROUNDUP
NATIONAL WEATHER SERVICE PHOENIX AZ
100 PM MST FRI AUG 22 2014

NOTE: FAIR INDICATES FEW OR NO CLOUDS BELOW 12,000 FEET WITH NO
SIGNIFICANT WEATHER AND/OR OBSTRUCTIONS TO VISIBILITY.

AZZ001>003-036-222100-
NORTHWEST ARIZONA

CITY           SKY/WX    TMP DP  RH WIND       PRES   REMARKS
KINGMAN        SUNNY     80  53  39 S9        30.06F
$$

AZZ004>008-015-016-018-222100-
NORTH CENTRAL ARIZONA

CITY           SKY/WX    TMP DP  RH WIND       PRES   REMARKS
GRAND CANYON   MOSUNNY   68  48  48 SW13G18   30.24F
WILLIAMS       MOSUNNY   66  46  48 S13       30.30F
PRESCOTT       PTSUNNY   73  47  39 S10       30.15F
FLAGSTAFF      CLOUDY    64  47  53 SW9       30.26F
PAYSON         PTSUNNY   73  52  46 SW7       30.18F
PAGE           MOSUNNY   81  52  36 VRB5      30.05F
$$

AZZ009>014-017-222100-
NORTHEAST ARIZONA

CITY           SKY/WX    TMP DP  RH WIND       PRES   REMARKS
WINSLOW        PTSUNNY   79  51  37 NW23G29   30.12F
SAINT JOHNS    PTSUNNY   75  50  41 SE8       30.16F
WINDOW ROCK    MOSUNNY   72  48  42 SW9       30.22F
$$

AZZ023-222100-
GREATER PHOENIX AREA

CITY           SKY/WX    TMP DP  RH WIND       PRES   REMARKS
PHOENIX        MOSUNNY   87  62  43 W5        29.94F
GLENDALE       MOSUNNY   86  66  51 SE6       29.96F
DEER VALLEY    CLOUDY    85  63  47 S6        29.95F
SCOTTSDALE     MOSUNNY   87  62  43 S5        29.97F
MESA-FALCON    MOSUNNY   86  61  42 S6        29.95F
MESA-GATEWAY   MOSUNNY   86  59  39 NW3       29.98F
CHANDLER       PTSUNNY   86  61  42 VRB5      29.96F
$$

AZZ027-028-222100-
SOUTHWEST MARICOPA COUNTY AND PINAL COUNTY

CITY           SKY/WX    TMP DP  RH WIND       PRES   REMARKS
CASA GRANDE    MOSUNNY   90  59  35 SW3       29.96F
GILA BEND      PTCLDY    88  63  42 VRB1      29.81R
$$

AZZ503-504-507>509-222100-
SOUTHEAST ARIZONA

CITY           SKY/WX    TMP DP  RH WIND       PRES   REMARKS
TUCSON         MOSUNNY   86  55  34 SW5       30.03F
RYAN FIELD       N/A     86  59  39 MISG      30.02F
NOGALES        PTSUNNY   82  59  45 SW8       30.11F
SAFFORD        MOSUNNY   86  54  33 MISG      30.02F
$$

AZZ020-021-025-026-031-222100-
SOUTHWEST ARIZONA

CITY           SKY/WX    TMP DP  RH WIND       PRES   REMARKS
YUMA           MOSUNNY   91  57  31 CALM      29.90F
$$

CAZ031-033-041-043-047-048-061-222100-
SOUTHERN CALIFORNIA

CITY           SKY/WX    TMP DP  RH WIND       PRES   REMARKS
DOWNTOWN L.A.  SUNNY     81  64  56 VRB5      29.96F
L.A. AIRPORT   MOSUNNY   74  63  68 W9        29.98S
SAN DIEGO      MOSUNNY   78  63  59 W7        29.97F
BURBANK        SUNNY     82  61  48 S7        29.96F
ONTARIO        MOSUNNY   87  59  38 W10       29.96F
RIVERSIDE      SUNNY     86  60  41 W7        29.95F
PALM SPRINGS   SUNNY     90  58  33 SE7G18    29.92F
EL CENTRO NAS  MOSUNNY   87  62  43 E6        29.88F
IMPERIAL       SUNNY     86  63  45 E7        29.89F
BLYTHE         SUNNY     85  61  44 CALM      29.92F
$$

NVZ020-UTZ003-222100-
SOUTHERN NEVADA-UTAH

CITY           SKY/WX    TMP DP  RH WIND       PRES   REMARKS
LAS VEGAS      NOT AVBL
SALT LAKE CITY CLOUDY    81  44  27 VRB6      29.93F
$$

NMZ009-TXZ055-222100-
NEW MEXICO-WEST TEXAS

CITY           SKY/WX    TMP DP  RH WIND       PRES   REMARKS
ALBUQUERQUE    LGT RAIN  63  56  78 N7        30.22S
EL PASO        LGT RAIN  74  63  68 VRB5      30.12F
$$


........................KEY........................
SKY/WX - SKY CONDITION/WEATHER
TMP    - TEMPERATURE IN FAHRENHEIT
DP     - DEW POINT IN FAHRENHEIT
RH     - RELATIVE HUMIDITY IN PERCENT
WIND   - DIRECTION AND SPEED IN MILES PER HOUR (MPH)
VRB    - VARIABLE WIND DIRECTION
PRES   - MEAN SEA LEVEL PRESSURE IN INCHES OF MERCURY
         F - FALLING PRESSURE   R - RISING PRESSURE
         S - STEADY PRESSURE
VSB    - VISIBILITY IN MILES
HX     - HEAT INDEX IN FAHRENHEIT
WCI    - WIND CHILL INDEX IN FAHRENHEIT
TC     - TEMPERATURE IN CELSIUS WHICH IS ALSO KNOWN AS
         TEMPERATURE IN CENTIGRADE
AFB    - AIR FORCE BASE
         LUKE AFB IS LUKE AIR FORCE BASE
         DAVIS-MONTHAN IS DAVIS-MONTHAN AIR FORCE BASE
NAS    - NAVAL AIR STATION
         EL CENTRO NAS IS EL CENTRO NAVAL AIR STATION
N/A    - NOT AVAILABLE


USA.gov is the U.S. government's official web portal to all federal, state and local government web resources and services.